Flag for U.S.A. Weather past 2 weeks in Newport News, Virginia, U.S.A.

Now
50 °F

Clear.


Feels Like: 48 °F
Forecast: 47 / 57 °F
Wind: 5 mph from East

Location: Newport News / Williamsburg International Airport

Current Time: Apr 25, 2015 at 12:14:21 AM

Latest Report: Apr 24, 2015 at 10:54 PM


Visibility: 10 mi

Pressure: 29.96 "Hg

Humidity: 66%

Dew point: 39 °F

Location of Newport NewsLocation

Historic Weather in Newport News — Graph

°F

Newport News temperature yesterday

Maximum temperature yesterday: 66 °F (at 4:54 PM)
Minimum temperature yesterday: 42 °F (at 5:54 AM)
Average temperature yesterday: 54 °F

Past Weeks' High & Low Weather Summary

 TemperatureHumidityPressure
High86 °F (Apr 10, 1:54 PM)90% (Apr 18, 4:03 AM)30.40 "Hg (Apr 18, 4:03 AM)
Low42 °F (Apr 24, 5:54 AM)19% (Apr 24, 4:54 PM)29.61 "Hg (Apr 20, 5:54 PM)
Average64 °F62%30.02 "Hg
* Reported Apr 9 11:01 PM — Apr 24 10:54 PM, Newport News, Weather by CustomWeather, © 2015

Note: Actual official high and low records may vary slightly from our data, if they occured in-between our weather recording intervals... More about our weather records

Advertising

Newport News weather history for previous 24 hours

 ConditionsComfort  
Time TempWeatherWind HumidityBarometerVisibility
10:54 PM
Fri, Apr 24
50 °FClear.5 mph66%29.96 "Hg10 mi
9:54 PM51 °FClear.8 mph59%29.96 "Hg10 mi
8:54 PM51 °FClear.3 mph50%29.94 "Hg10 mi
6:54 PM65 °FSunny.8 mph20%29.92 "Hg10 mi
5:54 PM66 °FSunny.15 mph19%29.92 "Hg10 mi
4:54 PM66 °FSunny.13 mph19%29.93 "Hg10 mi
3:54 PM64 °FSunny.17 mph22%29.93 "Hg10 mi
2:54 PM63 °FSunny.14 mph27%29.96 "Hg10 mi
1:54 PM61 °FSunny.18 mph29%29.98 "Hg10 mi
12:54 PM59 °FSunny.18 mph28%30.00 "Hg10 mi
11:54 AM59 °FSunny.14 mph35%30.02 "Hg10 mi
10:54 AM55 °FSunny.12 mph42%30.03 "Hg10 mi
9:54 AM53 °FSunny.10 mph45%30.02 "Hg10 mi
8:54 AM51 °FSunny.14 mph46%30.02 "Hg10 mi
7:54 AM49 °FSunny.10 mph55%30.03 "Hg10 mi
6:54 AM42 °FClear.5 mph76%30.01 "Hg10 mi
5:54 AM42 °FClear.5 mph73%29.98 "Hg10 mi
4:54 AM45 °FClear.5 mph65%29.97 "Hg10 mi
3:54 AM47 °FClear.5 mph64%29.96 "Hg10 mi
2:54 AM49 °FClear.5 mph59%29.95 "Hg10 mi
1:54 AM51 °FClear.8 mph54%29.93 "Hg10 mi
12:54 AM53 °FClear.8 mph47%29.93 "Hg10 mi
Weather by CustomWeather, © 2015

See weather overviewHow to use our weather pages